Tims Ford Observed Data For Previous 48 Hours

Caption
Day and Hour Reservoir Elevation (behind dam)* Tailwater Elevation (below dam)* Average Hourly Discharge*
10/20/2019 1 AM CDT 886.70 744.13 240
10/20/2019 2 AM CDT 886.69 744.11 240
10/20/2019 3 AM CDT 886.69 744.13 240
10/20/2019 4 AM CDT 886.69 744.12 240
10/20/2019 5 AM CDT 886.69 744.12 240
10/20/2019 6 AM CDT 886.69 744.12 240
10/20/2019 7 AM CDT 886.69 744.13 240
10/20/2019 8 AM CDT 886.69 744.12 240
10/20/2019 9 AM CDT 886.69 744.13 240
10/20/2019 10 AM CDT 886.69 744.12 240
10/20/2019 11 AM CDT 886.69 744.12 240
10/20/2019 12 PM CDT 886.69 744.13 240
10/20/2019 1 PM CDT 886.68 744.14 240
10/20/2019 2 PM CDT 886.69 744.13 240
10/20/2019 3 PM CDT 886.68 744.13 240
10/20/2019 4 PM CDT 886.68 744.12 240
10/20/2019 5 PM CDT 886.68 744.12 240
10/20/2019 6 PM CDT 886.68 744.12 240
10/20/2019 7 PM CDT 886.68 744.12 240
10/20/2019 8 PM CDT 886.68 744.13 240
10/20/2019 9 PM CDT 886.68 744.13 240
10/20/2019 10 PM CDT 886.67 744.13 240
10/20/2019 11 PM CDT 886.67 744.13 240
10/21/2019 12 AM CDT 886.68 744.11 240
10/21/2019 1 AM CDT 886.67 744.12 240
10/21/2019 2 AM CDT 886.67 744.13 240
10/21/2019 3 AM CDT 886.67 744.12 240
10/21/2019 4 AM CDT 886.67 744.12 240
10/21/2019 5 AM CDT 886.67 744.11 240
10/21/2019 6 AM CDT 886.67 744.12 240
10/21/2019 7 AM CDT 886.67 744.11 240
10/21/2019 8 AM CDT 886.66 744.13 240
10/21/2019 9 AM CDT 886.67 744.14 240
10/21/2019 10 AM CDT 886.66 744.13 240
10/21/2019 11 AM CDT 886.66 744.13 240
10/21/2019 12 PM CDT 886.66 744.13 240
10/21/2019 1 PM CDT 886.66 744.12 240
10/21/2019 2 PM CDT 886.66 744.13 240
10/21/2019 3 PM CDT 886.65 744.13 240
10/21/2019 4 PM CDT 886.66 744.13 240
10/21/2019 5 PM CDT 886.69 744.13 240
10/21/2019 6 PM CDT 886.69 744.15 240
10/21/2019 7 PM CDT 886.68 744.14 240
10/21/2019 8 PM CDT 886.71 744.14 240
10/21/2019 9 PM CDT 886.69 744.15 240
10/21/2019 10 PM CDT 886.71 744.12 240
10/21/2019 11 PM CDT 886.71 744.13 240
10/22/2019 12 AM CDT 886.70 744.14 240
10/22/2019 1 AM CDT 886.72 744.15 240

Elevations are in feet above sea level. Discharges are in cubic feet per second and are reported at the end of the hour.